www.pogodaiklimat.ru

Погода и климат >> Архив погоды >> Россия >> Якутия >> Покровск


ПОГОДА в Покровске

  • Прогноз погоды в Покровске
  • Монитор погоды в Покровске
  • Климат города

АРХИВ ПОГОДЫ в Покровске

Время (UTC), дата Ветер
(напр.,м/с)
 
Видим.   Явления Облачность Т
(С)
Тd
(С)
f
(%)
Тe
(С)
Тes
(С)
Комфортность P
(гПа)
Po
(гПа)
Тmin
(С)
Tmax
(С)
R
(мм)
S
(см)
06 17.03 З 4 50 км 8/1 600 м
[Cu hum Ci fib]
-0.7 -12.1 42 -5 -4 1021.7 1006.4
09 17.03 ЮЗ 3 50 км 10/0
[Cs]
-3.4 -12.9 48 -8 -8 1022.9 1007.4
12 17.03 З 2 20 км 3/0
[Ci fib]
-13.1 -18.3 65 -18 -18 1024.8 1008.6 +0.1
15 17.03 З 2 20 км ясно -18.5 -21.8 75 -24 -24 1026.7 1010.3
18 17.03 З 2 20 км ясно -21.4 -24.7 75 -27 -27 1028.6 1011.9
21 17.03 ЮЗ 3 50 км ясно -23.8 -26.3 80 -32 -32 опасность
обморожения
1030.3 1013.4
00 18.03 ЮЗ 3 50 км ясно -16.2 -19.6 75 -23 -21 1030.5 1015.1 -23.8 26
03 18.03 ЮЗ 5 50 км позёмок {метель} 3/3 600 м
[Cu hum]
-11.2 -16.5 65 -19 -17 1031.5 1015.4
06 18.03 ЮЗ 5 50 км позёмок {метель} 4/4 600 м
[Cu hum]
-6.3 -13.8 55 -13 -12 1030.0 1014.2
09 18.03 ЮЗ 4 50 км {метель} 8/0
[Ci fib]
-5.9 -14.3 51 -12 -12 1030.4 1014.6
12 18.03 З 2 20 км {метель} 4/0
[Ci fib]
-16.2 -19.6 75 -21 -21 1031.1 1014.7 -4.5
15 18.03 ЮЗ 2 20 км ясно -19.9 -22.5 80 -26 -26 1031.4 1014.7
18 18.03 ЮЗ 1 20 км ясно -16.4 -19.8 75 -19 -19 1030.7 1014.3
21 18.03 ЮЗ 1 50 км 10/10 1000 м
[Sc]
-15.6 -19.0 75 -18 -18 1030.0 1013.6
00 19.03 ЮЗ 2 20 км 10/0
[Ac trans Cs]
-13.1 -16.6 75 -18 -16 1029.3 1013.2 -20.2 26
03 19.03 ЮЗ 4 50 км 8/0
[Ci sp]
-6.4 -12.4 62 -13 -10 1028.0 1012.3
06 19.03 ЮЗ 5 50 км 10/0
[Cs]
-4.3 -11.7 56 -11 -10 1026.5 1010.9
09 19.03 ЮЗ 3 50 км 10/0
[Ci fib]
-4.0 -11.3 57 -9 -9 1026.2 1010.6
12 19.03 З 2 20 км 10/0
[Ci fib]
-10.2 -13.8 75 -15 -15 1026.7 1010.8 -3.7
15 19.03 З 2 20 км 10/0
[Ci fib]
-13.4 -16.1 80 -18 -18 1027.3 1011.1
18 19.03 З 3 20 км 10/0
[Ci fib]
-16.5 -19.1 80 -23 -23 1027.3 1011.0
21 19.03 З 1 20 км 10/4 1000 м
[Sc Ci fib]
-17.1 -19.7 80 -20 -20 1027.5 1011.1
00 20.03 З 2 20 км слабый снег 10/3 600 м
[Sc Ac trans Cs]
-15.6 -17.5 85 -21 -20 1028.2 1011.9 -19.2 0.9 26
03 20.03 ЮЗ 3 50 км {снег} 10/6 600 м
[Cu med, cong Ci fib]
-6.6 -9.0 83 -12 -11 1026.8 1011.1
06 20.03 Ю 2 50 км {снег} 10/6 600 м
[Cu med, cong Ci fib]
-3.1 -7.3 73 -7 -6 1025.4 1009.9
09 20.03 штиль 0 50 км 10/6 600 м
[Cu med, cong Ci fib]
-1.8 -7.6 65 -3 -3 1024.8 1009.3
12 20.03 З 2 20 км 10/6 600 м
[Cu med, cong Ci fib]
-7.8 -10.9 78 -12 -12 1024.8 1009.0 -1.0
15 20.03 З 2 20 км 10/10 600 м
[Sc]
-4.6 -8.5 74 -9 -9 1023.4 1007.8
18 20.03 З 1 20 км 10/10 600 м
[Sc]
-4.9 -7.2 84 -7 -7 1021.8 1006.2
21 20.03 С 2 50 км 10/10 600 м
[Sc]
-4.2 -6.8 82 -8 -8 1021.1 1005.6
00 21.03 С 2 50 км 10/8 600 м
[Sc Ci fib]
-5.1 -8.4 78 -9 -9 1021.2 1005.7 -7.8 26
03 21.03 ЮВ 2 50 км 3/3 600 м
[Cu hum]
-2.5 -6.9 72 -6 -2 1020.8 1005.4
06 21.03 Ю 3 50 км ясно -0.7 -7.5 60 -5 -2 1019.8 1004.5
09 21.03 С 2 50 км ясно +0.1 -8.8 51 -3 -3 1019.6 1004.3
12 21.03 З 2 20 км ясно -10.6 -14.2 75 -15 -15 1020.7 1004.8 +1.1
15 21.03 СЗ 3 20 км ясно -12.0 -14.0 85 -18 -18 1021.0 1005.0
18 21.03 З 2 20 км 6/0
[Ci fib]
-15.4 -16.7 90 -20 -20 1021.3 1005.1
21 21.03 З 3 50 км 4/0
[Ci fib]
-18.2 -19.4 90 -25 -25 1021.3 1004.9
00 22.03 З 2 50 км 8/0
[Ac trans]
-10.1 -12.1 85 -15 -13 1021.0 1005.1 -18.2 26
03 22.03 ЮЗ 6 50 км 3/3 600 м
[Cu med, cong]
-2.9 -7.8 69 -10 -8 1020.3 1004.9
06 22.03 З 4 50 км 8/8 1000 м
[Sc]
+1.3 -7.7 51 -3 -3 1019.0 1004.7
09 22.03 З 3 50 км 8/8 600 м
[Cb calv]
+1.3 -7.2 53 -2 -2 1020.6 1005.4
12 22.03 20 км н/о -1.5 -7.5 64 -5 -5 1021.8 1006.4 +2.5
15 22.03 З 3 20 км 4/4 1000 м
[Sc]
-8.1 -10.8 81 -14 -14 1022.9 1007.2
18 22.03 З 3 20 км ясно -13.0 -15.0 85 -19 -19 1023.3 1007.3
21 22.03 ЮЗ 2 50 км 3/0
[Ac trans]
-15.1 -17.1 85 -20 -20 1023.6 1007.5
00 23.03 Ю 2 50 км 3/0
[Ac trans]
-11.0 -12.3 90 -16 -14 1024.1 1008.2 -15.1 26
03 23.03 Ю 1 50 км 6/4 600 м
[Cu med, cong Ci fib]
-1.7 -6.5 70 -4 0 1023.1 1007.6
06 23.03 СЗ 3 50 км 9/9 600 м
[Sc]
+1.0 -8.8 48 -3 -2 1022.1 1006.9
09 23.03 З 3 50 км 4/3 600 м
[Sc Ac trans]
-0.7 -8.6 55 -5 -5 1022.2 1006.9
12 23.03 З 2 20 км 3/0
[Ci fib]
-8.5 -10.9 83 -13 -13 1022.9 1007.1 +1.9
15 23.03 З 2 20 км ясно -12.7 -14.7 85 -17 -17 1022.8 1006.8
18 23.03 З 2 20 км 8/8 1000 м
[Sc]
-15.7 -17.6 85 -21 -21 1022.3 1006.1
21 23.03 З 2 10 км 10/6 1000 м
[Sc Cs]
-15.6 -16.9 90 -21 -21 1021.7 1005.5
00 24.03 Ю 1 10 км 10/8 1000 м
[Sc Ac trans]
-11.6 -12.9 90 -14 -14 1021.2 1005.2 -17.0 26
03 24.03 ЮЗ 3 50 км в посл. час ливневой снег 8/3 1000 м
[Cu med, cong Ci fib]
-3.0 -6.1 79 -8 -5 1019.7 1004.3

 

Местоположение метеостанции Покровск (Якутия, Россия): широта 61.48 долгота 129.10 высота над уровнем моря 121 м.

В архиве по умолчанию представлена погода в Покровске за последнюю неделю. Архивные данные за месяц целиком и за предыдущие месяцы, начиная с января 2011 года, Вы можете получить, выбрав интересующий диапазон дат из раскрывающегося списка и нажав кнопку "Ввод!".

Внимание! Время в таблицах - всемирное. Для получения местного времени необходимо прибавить поправку, которая в Покровске равна 9 ч.

Смотрите также архив погоды в соседних городах и на ближайших метеорологических станциях:

Погода в Якутске (Якутия, Россия) (64 км)
Погода в Тегюльте (Якутия, Россия) (122 км)
Погода в Намцах (Якутия, Россия) (140 км)
Погода в Бердигестяхе (Якутия, Россия) (141 км)
Погода в Амге (Якутия, Россия) (163 км)
Погода в Чурапче (Якутия, Россия) (194 км)
Погода в Исите (Якутия, Россия) (217 км)
Погода в Батамае (Якутия, Россия) (227 км)
Погода в Буяге (Якутия, Россия) (232 км)
Погода в Тонгулахе (Якутия, Россия) (247 км)

Пояснения к столбцам:

Ветер - указаны скорость ветра в м/с - средняя за 10 мин, порывы в срок и между сроками (в фигурных скобках) и направление, откуда дует ветер: С - северный, СВ - северо-восточный, В - восточный, ЮВ - юго-восточный, Ю - южный, ЮЗ - юго-западный, З - западный, СЗ - северо-западный.
Видимость - горизонтальная дальность видимости в метрах или километрах. При видимости от 1 до 10 км при отсутствии осадков обычно наблюдается дымка, при ухудшении видимости до 1 км и менее - туман. В сухую погоду видимость может ухудшаться дымом, пылью или мглою.
Явления - указаны атмосферные явления, наблюдавшиеся в срок или в последний час перед сроком; фигурными скобками обозначены явления, наблюдавшиеся между сроками (за 1-3 часа до срока); квадратными скобками обозначены град или гололедные отложения с указанием их диаметра в мм.
Облачность - указаны через наклонную черту общая и нижняя облачность в баллах и высота нижней границы облаков в метрах; квадратными скобками обозначены формы облаков: Ci - перистые, Cs - перисто-слоистые, Cc - перисто-кучевые, Ac - высококучевые, As - высокослоистые, Sc - слоисто-кучевые, Ns - слоисто-дождевые, Cu - кучевые, Cb - кучево-дождевые. Подробнее классификацию облаков см. в Атласе облаков (PDF).
T - Температура воздуха - температура, измеренная на высоте 2 м над землей.
Td - Температура точки росы - температура, при понижении до которой содержащийся в воздухе водяной пар достигнет насыщения.
f - Относительная влажность воздуха - влажноcть воздуха, измеренная на высоте 2 м над землей.
Te - Эффективная температура - температура, которую ощущает одетый по сезону человек в тени. Характеристика душности погоды. При расчете учитывается влияние влажности воздуха и скорости ветра на теплоощущения человека.
Tes - Эффективная температура на солнце - температура, которую ощущает человек, с поправкой на солнечный нагрев. Характеристика знойности погоды. Зависит от высоты солнца над горизонтом, облачности и скорости ветра. Ночью, в пасмурную погоду, а также при ветре 12 м/с и более поправка равна нулю.
P - Атмосферное давление - приведенное к уровню моря атмосферное давление.
Po - Атмосферное давление - измеренное на уровне метеостанции атмосферное давление.
Tmin - Минимальная температура - минимум температуры воздуха на высоте 2 м над землей.
Tmax - Максимальная температура - максимум температуры воздуха на высоте 2 м над землей.
R - Количество осадков - Количество выпавших осадков, мм. При наведении курсора мыши на число - период времени, за который выпало указанное количество осадков.
S - Снежный покров - Высота снежного покрова, см. При наведении курсора мыши на число - состояние снежного покрова и степень покрытия местности в баллах.